Hourly Weather Szombathely

Today, 23 October, Friday

Time Temperature Precipitation Wind Pressure Humidity
00:00 +10°C° 0 mm 0 mps 745 mmHg 92%
01:00 +9°C° 0 mm 0 mps 745 mmHg 93%
02:00 +9°C° 0 mm 0 mps 745 mmHg 93%
03:00 +9°C° 0 mm 0 mps 744 mmHg 93%
04:00 +10°C° 0 mm 1 mps 744 mmHg 94%
05:00 +9°C° 0 mm 0 mps 744 mmHg 94%
06:00 +9°C° 0 mm 0 mps 744 mmHg 94%
07:00 +9°C° 0 mm 0 mps 744 mmHg 94%
08:00 +10°C° 0 mm 0 mps 744 mmHg 88%
09:00 +13°C° 0 mm 1 mps 743 mmHg 82%
10:00 +14°C° 0 mm 1 mps 743 mmHg 77%
11:00 +15°C° 0 mm 1 mps 743 mmHg 73%
12:00 +16°C° 0 mm 2 mps 743 mmHg 69%
13:00 +17°C° 0 mm 2 mps 742 mmHg 66%
14:00 +17°C° 0 mm 2 mps 742 mmHg 69%
15:00 +18°C° 0 mm 1 mps 741 mmHg 72%
16:00 +16°C° 0 mm 1 mps 741 mmHg 75%
17:00 +15°C° 0 mm 1 mps 741 mmHg 79%
18:00 +14°C° 0 mm 1 mps 741 mmHg 83%
19:00 +13°C° 0 mm 1 mps 741 mmHg 86%
20:00 +13°C° 0 mm 1 mps 741 mmHg 87%
21:00 +13°C° 0 mm 1 mps 741 mmHg 89%
22:00 +12°C° 0 mm 2 mps 741 mmHg 90%
23:00 +12°C° 0 mm 2 mps 741 mmHg 91%

Tomorrow, 24 October, Saturday

Time Temperature Precipitation Wind Pressure Humidity
00:00 +12°C° 0 mm 2 mps 741 mmHg 92%
01:00 +12°C° 0 mm 2 mps 742 mmHg 93%
02:00 +11°C° 0 mm 1 mps 742 mmHg 93%
03:00 +11°C° 0 mm 1 mps 742 mmHg 93%
04:00 +10°C° 0 mm 0 mps 742 mmHg 93%
05:00 +12°C° 0.3 mm 1 mps 742 mmHg 93%
06:00 +12°C° 0.3 mm 1 mps 743 mmHg 93%
07:00 +12°C° 0.3 mm 1 mps 743 mmHg 93%
08:00 +13°C° 0.1 mm 1 mps 743 mmHg 89%
09:00 +14°C° 0.1 mm 1 mps 744 mmHg 86%
10:00 +15°C° 0.1 mm 1 mps 744 mmHg 82%
11:00 +18°C° 0 mm 1 mps 744 mmHg 76%
12:00 +19°C° 0 mm 1 mps 744 mmHg 70%
13:00 +20°C° 0 mm 1 mps 744 mmHg 64%
14:00 +19°C° 0.1 mm 1 mps 744 mmHg 67%
15:00 +19°C° 0.1 mm 1 mps 744 mmHg 71%
16:00 +18°C° 0.1 mm 1 mps 744 mmHg 74%
17:00 +16°C° 0 mm 1 mps 744 mmHg 77%
18:00 +15°C° 0 mm 1 mps 745 mmHg 81%
19:00 +14°C° 0 mm 1 mps 745 mmHg 84%
20:00 +13°C° 0 mm 1 mps 745 mmHg 85%
21:00 +13°C° 0 mm 1 mps 745 mmHg 86%
22:00 +12°C° 0 mm 1 mps 745 mmHg 87%
23:00 +12°C° 0 mm 1 mps 745 mmHg 87%

Day after tomorrow, 25 October, Sunday

Time Temperature Precipitation Wind Pressure Humidity
00:00 +12°C° 0 mm 1 mps 745 mmHg 88%
01:00 +12°C° 0 mm 1 mps 745 mmHg 88%
02:00 +11°C° 0 mm 1 mps 745 mmHg 88%
03:00 +11°C° 0 mm 1 mps 745 mmHg 89%
04:00 +11°C° 0 mm 1 mps 745 mmHg 90%
05:00 +11°C° 0 mm 1 mps 745 mmHg 90%
06:00 +10°C° 0 mm 1 mps 744 mmHg 91%
07:00 +10°C° 0 mm 1 mps 744 mmHg 91%
08:00 +12°C° 0 mm 1 mps 744 mmHg 85%
09:00 +14°C° 0 mm 1 mps 744 mmHg 79%
10:00 +15°C° 0 mm 1 mps 744 mmHg 74%
11:00 +16°C° 0 mm 1 mps 743 mmHg 71%
12:00 +17°C° 0 mm 2 mps 743 mmHg 69%
13:00 +17°C° 0 mm 2 mps 742 mmHg 67%
14:00 +17°C° 0 mm 2 mps 742 mmHg 71%
15:00 +16°C° 0 mm 2 mps 742 mmHg 75%
16:00 +16°C° 0 mm 2 mps 741 mmHg 79%
17:00 +15°C° 0 mm 1 mps 741 mmHg 82%
18:00 +14°C° 0 mm 1 mps 741 mmHg 86%
19:00 +12°C° 0 mm 1 mps 741 mmHg 90%
20:00 +12°C° 0 mm 1 mps 741 mmHg 90%
21:00 +12°C° 0 mm 1 mps 741 mmHg 90%
22:00 +12°C° 0 mm 1 mps 741 mmHg 90%
23:00 +12°C° 0 mm 1 mps 740 mmHg 92%

, 26 October, Monday

Time Temperature Precipitation Wind Pressure Humidity
00:00 +11°C° 0 mm 1 mps 740 mmHg 93%
01:00 +11°C° 0 mm 1 mps 739 mmHg 95%
02:00 +10°C° 0 mm 2 mps 739 mmHg 95%
03:00 +10°C° 0 mm 2 mps 739 mmHg 95%
04:00 +10°C° 0 mm 2 mps 738 mmHg 95%
05:00 +10°C° 0 mm 2 mps 738 mmHg 96%
06:00 +10°C° 0 mm 3 mps 738 mmHg 96%
07:00 +10°C° 0 mm 3 mps 737 mmHg 96%
08:00 +11°C° 0 mm 4 mps 737 mmHg 92%
09:00 +12°C° 0 mm 4 mps 737 mmHg 87%
10:00 +13°C° 0 mm 5 mps 737 mmHg 82%
11:00 +14°C° 0 mm 5 mps 736 mmHg 77%
12:00 +15°C° 0 mm 6 mps 736 mmHg 72%
13:00 +16°C° 0 mm 6 mps 736 mmHg 67%
14:00 +16°C° 0 mm 5 mps 735 mmHg 69%
15:00 +16°C° 0 mm 5 mps 735 mmHg 71%
16:00 +15°C° 0 mm 4 mps 735 mmHg 72%
17:00 +15°C° 0 mm 5 mps 735 mmHg 75%
18:00 +14°C° 0 mm 5 mps 735 mmHg 78%
19:00 +13°C° 0 mm 5 mps 736 mmHg 81%
20:00 +13°C° 0 mm 4 mps 736 mmHg 83%
21:00 +12°C° 0 mm 4 mps 736 mmHg 84%
22:00 +12°C° 0 mm 4 mps 736 mmHg 86%
23:00 +12°C° 0 mm 3 mps 736 mmHg 87%

26 October, Monday

Time Temperature Precipitation Wind Pressure Humidity
00:00 +11°C° 0 mm 1 mps 740 mmHg 93%
01:00 +11°C° 0 mm 1 mps 739 mmHg 95%
02:00 +10°C° 0 mm 2 mps 739 mmHg 95%
03:00 +10°C° 0 mm 2 mps 739 mmHg 95%
04:00 +10°C° 0 mm 2 mps 738 mmHg 95%
05:00 +10°C° 0 mm 2 mps 738 mmHg 96%
06:00 +10°C° 0 mm 3 mps 738 mmHg 96%
07:00 +10°C° 0 mm 3 mps 737 mmHg 96%
08:00 +11°C° 0 mm 4 mps 737 mmHg 92%
09:00 +12°C° 0 mm 4 mps 737 mmHg 87%
10:00 +13°C° 0 mm 5 mps 737 mmHg 82%
11:00 +14°C° 0 mm 5 mps 736 mmHg 77%
12:00 +15°C° 0 mm 6 mps 736 mmHg 72%
13:00 +16°C° 0 mm 6 mps 736 mmHg 67%
14:00 +16°C° 0 mm 5 mps 735 mmHg 69%
15:00 +16°C° 0 mm 5 mps 735 mmHg 71%
16:00 +15°C° 0 mm 4 mps 735 mmHg 72%
17:00 +15°C° 0 mm 5 mps 735 mmHg 75%
18:00 +14°C° 0 mm 5 mps 735 mmHg 78%
19:00 +13°C° 0 mm 5 mps 736 mmHg 81%
20:00 +13°C° 0 mm 4 mps 736 mmHg 83%
21:00 +12°C° 0 mm 4 mps 736 mmHg 84%
22:00 +12°C° 0 mm 4 mps 736 mmHg 86%
23:00 +12°C° 0 mm 3 mps 736 mmHg 87%

27 October, Tuesday

Time Temperature Precipitation Wind Pressure Humidity
00:00 +11°C° 0 mm 3 mps 736 mmHg 88%
01:00 +12°C° 0 mm 2 mps 736 mmHg 89%
02:00 +12°C° 0 mm 2 mps 736 mmHg 90%
03:00 +12°C° 0 mm 2 mps 736 mmHg 91%
04:00 +10°C° 0 mm 2 mps 736 mmHg 91%
05:00 +10°C° 0 mm 2 mps 736 mmHg 90%
06:00 +12°C° 0 mm 2 mps 736 mmHg 89%
07:00 +12°C° 0 mm 2 mps 736 mmHg 88%
08:00 +13°C° 0 mm 2 mps 736 mmHg 83%
09:00 +13°C° 0 mm 3 mps 737 mmHg 77%
10:00 +16°C° 0 mm 3 mps 737 mmHg 72%
11:00 +16°C° 0 mm 3 mps 737 mmHg 71%
12:00 +16°C° 0 mm 3 mps 737 mmHg 70%
13:00 +17°C° 0 mm 3 mps 737 mmHg 69%
14:00 +16°C° 0 mm 3 mps 737 mmHg 71%
15:00 +16°C° 0 mm 2 mps 737 mmHg 74%
16:00 +15°C° 0 mm 1 mps 737 mmHg 76%
17:00 +15°C° 0 mm 1 mps 737 mmHg 77%
18:00 +14°C° 0 mm 1 mps 738 mmHg 79%
19:00 +14°C° 0 mm 1 mps 738 mmHg 80%
20:00 +14°C° 0.1 mm 1 mps 738 mmHg 82%
21:00 +14°C° 0.1 mm 1 mps 738 mmHg 85%
22:00 +14°C° 0.1 mm 1 mps 738 mmHg 87%
23:00 +13°C° 0 mm 2 mps 738 mmHg 89%

28 October, Wednesday

Time Temperature Precipitation Wind Pressure Humidity
00:00 +13°C° 0 mm 2 mps 738 mmHg 90%
01:00 +13°C° 0 mm 2 mps 738 mmHg 91%
02:00 +12°C° 0.1 mm 3 mps 738 mmHg 92%
03:00 +12°C° 0.1 mm 3 mps 738 mmHg 92%
04:00 +11°C° 0.1 mm 4 mps 738 mmHg 93%
05:00 +11°C° 0.3 mm 4 mps 739 mmHg 92%
06:00 +10°C° 0.3 mm 5 mps 739 mmHg 92%
07:00 +10°C° 0.3 mm 5 mps 739 mmHg 91%
08:00 +12°C° 0.2 mm 5 mps 739 mmHg 88%
09:00 +11°C° 0.2 mm 6 mps 740 mmHg 85%
10:00 +13°C° 0.2 mm 6 mps 740 mmHg 83%
11:00 +13°C° 0.1 mm 6 mps 740 mmHg 80%
12:00 +14°C° 0.1 mm 6 mps 740 mmHg 77%
13:00 +14°C° 0.1 mm 6 mps 740 mmHg 74%
14:00 +14°C° 0 mm 6 mps 740 mmHg 74%
15:00 +14°C° 0 mm 6 mps 740 mmHg 73%
16:00 +14°C° 0 mm 6 mps 741 mmHg 73%
17:00 +13°C° 0 mm 6 mps 741 mmHg 74%
18:00 +13°C° 0 mm 6 mps 741 mmHg 75%
19:00 +11°C° 0 mm 6 mps 741 mmHg 76%
20:00 +11°C° 0 mm 6 mps 742 mmHg 76%
21:00 +11°C° 0 mm 6 mps 742 mmHg 75%
22:00 +10°C° 0 mm 6 mps 742 mmHg 75%
23:00 +10°C° 0 mm 6 mps 742 mmHg 75%
Show more